This is the latest recevied weather packets stored in our database for station/object AD0YN. If no packets are shown the sender has not sent any weather packets the latest 10 day(s).
| Time | Temp. | Humidity | Pressure | Rain* | Wind** | Luminosity | Snow |
|---|---|---|---|---|---|---|---|
| 1778003633 | 10.56° C | 76% | 1011.8 hPa | 0 mm | - | 174 W/m² | - |
| 1778003329 | 10.56° C | 78% | 1011.7 hPa | 0 mm | - | 206 W/m² | - |
| 1778003027 | 10.56° C | 76% | 1011.8 hPa | 0 mm | - | 206 W/m² | - |
| 1778002722 | 10.56° C | 78% | 1012.1 hPa | 0 mm | - | 232 W/m² | - |
| 1778002419 | 10.56° C | 77% | 1012.3 hPa | 0 mm | - | 246 W/m² | - |
| 1778002116 | 10.56° C | 78% | 1012.5 hPa | 0 mm | - | 237 W/m² | - |
| 1778001814 | 10.56° C | 77% | 1012.5 hPa | 0 mm | - | 172 W/m² | - |
| 1778001513 | 10.56° C | 76% | 1012.4 hPa | 0 mm | - | 151 W/m² | - |
| 1778001211 | 10.56° C | 80% | 1012.2 hPa | 0 mm | - | 222 W/m² | - |
| 1778000907 | 10.56° C | 81% | 1012.4 hPa | 0 mm | - | 230 W/m² | - |
| 1778000604 | 10° C | 83% | 1012.8 hPa | 0 mm | - | 237 W/m² | - |
| 1778000299 | 10° C | 84% | 1012.7 hPa | 0 mm | - | 235 W/m² | - |
| 1777999995 | 10° C | 82% | 1012.9 hPa | 0 mm | - | 200 W/m² | - |
| 1777999691 | 10° C | 77% | 1012.5 hPa | 0 mm | - | 193 W/m² | - |
| 1777999388 | 9.44° C | 77% | 1012.1 hPa | 0 mm | - | 159 W/m² | - |
| 1777999086 | 9.44° C | 81% | 1011.8 hPa | 0 mm | - | 143 W/m² | - |
| 1777998785 | 10° C | 82% | 1012.5 hPa | 0 mm | - | 108 W/m² | - |
| 1777998483 | 10° C | 82% | 1012.8 hPa | 0 mm | - | 125 W/m² | - |
| 1777998178 | 10° C | 83% | 1012.6 hPa | 0 mm | - | 144 W/m² | - |
| 1777997876 | 10° C | 83% | 1012.7 hPa | 0 mm | - | 136 W/m² | - |
| 1777997573 | 10° C | 80% | 1012.4 hPa | 0 mm | - | 147 W/m² | - |
| 1777997270 | 10° C | 85% | 1012.6 hPa | 0 mm | - | 126 W/m² | - |
| 1777996968 | 10° C | 85% | 1012.5 hPa | 0 mm | - | 106 W/m² | - |
| 1777996664 | 10° C | 87% | 1012.6 hPa | 0 mm | - | 105 W/m² | - |
| 1777996360 | 10° C | 86% | 1012.6 hPa | 0 mm | - | 114 W/m² | - |
* Rain latest hour (hover to see other rain measurements)
** Current wind speed in m/s (hover to see current wind gust speed)